Wind_Speed
16 16 17 18 19 20 20 21 22 23 24 25 26 27 28 29 29 30 31 32 33 33 34 35 36 36 37 38 39 40 40 40 41 41 41 43 43 43 43 43 42 42 40 39 38 36 33 31 30 29 28 27 25 24 24 23 20 15 14 14 13 13 13 13 11 10 10 7 5 9 10 9 8 9 9 9 11 13 17 19 20 21 24 26 28 30 31 32
17 17 18 19 20 21 21 22 23 24 25 25 26 27 28 29 30 31 31 32 33 33 34 34 35 36 36 37 38 39 40 41 40 39 40 42 43 43 44 44 44 43 42 41 40 39 36 34 33 31 29 29 27 26 26 26 23 19 17 17 15 15 17 15 12 11 11 9 9 9 7 7 7 8 8 8 9 12 14 17 19 20 22 25 27 29 30 32
18 19 20 20 21 22 22 23 24 25 26 26 27 28 29 30 31 31 32 33 33 34 34 35 35 35 36 36 37 38 40 41 40 39 40 41 41 42 43 44 44 44 44 43 42 41 39 37 35 33 32 31 29 29 29 28 25 23 22 20 18 18 19 17 15 14 13 14 14 12 8 7 8 8 8 6 7 10 12 15 18 19 20 23 25 28 30 31
19 20 21 22 22 23 24 24 25 26 27 27 28 29 30 31 31 32 33 34 34 34 35 35 35 35 36 36 37 37 38 39 39 40 40 40 40 41 42 43 44 44 44 44 44 43 41 40 38 36 35 33 32 31 31 30 28 25 25 23 21 22 22 20 17 16 17 17 16 12 10 9 9 8 7 6 6 8 10 12 16 18 19 20 23 27 29 30
21 22 23 23 24 24 25 25 26 27 28 29 29 30 31 32 32 33 34 35 35 35 36 36 36 36 36 36 36 37 38 37 38 40 40 39 40 40 41 42 43 44 44 44 44 44 43 42 41 39 37 36 34 33 32 32 31 29 27 24 23 23 24 22 19 16 17 17 15 11 11 12 11 9 7 7 5 6 8 11 14 17 17 18 21 24 28 30
22 23 24 24 25 25 26 26 27 28 29 29 30 31 32 33 33 34 35 36 36 37 37 36 36 36 36 36 37 37 37 36 38 39 39 39 40 40 41 41 42 43 44 44 44 44 44 43 42 41 40 39 37 36 35 33 33 32 30 27 26 25 25 23 19 16 17 16 13 10 12 13 11 9 8 7 5 6 8 10 13 15 16 17 19 21 25 28
23 24 25 25 26 26 27 27 28 28 29 30 30 31 32 33 34 34 35 36 37 37 37 37 37 37 37 37 37 37 37 36 38 39 38 39 39 39 40 41 42 42 43 44 44 44 44 43 43 43 42 41 40 39 37 35 35 35 33 31 30 29 27 24 20 19 18 16 12 11 13 12 9 8 8 7 6 7 8 9 10 13 15 16 17 19 22 26
25 25 25 26 26 27 27 28 28 29 29 29 30 31 31 32 33 34 35 36 37 37 38 38 38 37 37 37 37 38 37 37 38 38 38 38 38 39 39 40 41 42 42 43 44 44 44 44 44 44 44 43 42 42 40 38 38 37 36 34 33 32 30 26 23 23 20 14 11 12 13 11 9 9 9 7 5 6 7 8 8 11 13 15 16 17 20 23
26 26 26 26 26 27 27 28 28 28 28 29 29 30 30 31 32 33 33 34 35 36 37 37 37 37 37 38 38 38 38 38 38 38 38 38 38 38 39 39 40 41 42 43 43 44 44 44 44 44 44 44 44 44 42 41 40 39 38 36 35 34 31 29 26 25 22 15 12 13 14 13 11 9 9 7 5 5 6 6 7 9 12 13 15 16 18 20
27 27 26 26 27 27 27 28 28 28 28 28 29 29 30 30 31 31 32 33 34 35 35 36 36 36 36 37 37 38 38 38 37 38 38 38 38 38 38 38 40 40 41 42 43 43 44 45 44 43 44 46 46 45 44 44 43 41 40 39 38 36 33 32 30 27 24 21 19 18 16 14 11 9 9 8 7 7 7 6 6 8 10 12 13 14 16 18
28 27 27 27 27 28 28 28 28 28 28 28 29 29 29 29 30 30 31 32 32 33 34 35 35 35 35 36 36 37 38 37 37 38 39 39 38 38 38 38 39 39 40 41 42 43 44 44 43 44 45 46 46 46 46 46 45 44 43 42 40 38 36 35 34 31 27 26 25 22 20 16 13 12 10 9 8 8 8 7 5 6 9 11 12 13 15 16
29 28 28 28 29 29 29 29 29 29 29 29 29 29 29 29 29 30 30 31 31 32 33 34 34 35 35 35 36 36 36 36 37 38 39 39 39 39 38 38 39 39 40 40 41 42 43 43 44 45 45 45 46 47 47 47 47 46 45 45 43 41 39 38 37 34 32 30 29 25 22 19 16 14 12 9 8 8 9 8 5 5 8 10 11 12 13 15
30 30 30 30 30 30 30 30 30 30 30 30 30 30 29 29 29 30 30 30 31 31 32 32 33 34 34 35 35 35 35 35 36 37 39 40 40 40 39 39 39 39 39 39 40 41 42 43 44 45 45 45 47 47 48 48 48 48 47 47 46 44 41 41 40 38 36 35 32 29 26 23 19 17 15 12 10 9 10 10 8 6 6 9 10 11 12 13
31 32 31 31 31 31 31 31 31 31 31 30 30 30 30 30 30 30 30 30 31 31 31 31 32 33 33 34 34 34 34 34 35 36 38 39 40 41 40 40 39 39 39 39 39 40 41 42 44 45 45 46 47 47 48 49 49 49 49 48 47 46 45 44 43 41 40 38 35 32 29 27 23 21 18 16 13 11 11 11 11 8 5 7 9 9 11 12
33 33 33 33 33 33 32 32 32 31 31 31 31 31 31 30 30 30 30 30 30 30 30 30 31 31 32 33 33 33 34 34 34 35 36 38 40 41 41 41 40 39 39 38 39 40 41 41 43 44 44 46 47 47 49 50 50 50 50 49 48 48 47 46 45 44 43 40 37 34 32 29 26 23 21 18 15 13 13 11 11 10 7 6 8 9 9 11
34 34 34 34 34 34 33 33 32 32 32 32 31 31 31 31 31 30 30 30 30 30 30 30 30 30 31 31 31 31 32 33 34 34 35 37 39 41 41 41 41 40 40 40 40 40 40 41 42 43 44 46 46 47 50 50 50 50 50 49 48 48 48 48 47 46 45 43 41 40 36 32 28 25 23 21 18 16 15 13 12 12 10 8 8 9 9 10
35 35 35 35 35 35 34 33 33 32 32 32 32 31 31 32 31 31 30 31 31 30 30 29 29 29 29 29 29 29 30 31 32 33 34 35 37 39 41 42 42 42 41 41 41 41 41 41 42 43 44 45 45 48 49 49 49 50 49 48 48 49 49 49 49 47 46 45 43 42 39 35 31 27 26 24 22 20 18 16 13 12 13 10 8 9 8 9
36 36 36 36 36 35 35 34 34 33 33 33 32 32 32 32 32 31 31 31 30 30 30 29 29 28 27 27 27 27 28 29 30 32 33 35 36 38 40 42 43 43 43 42 42 42 41 41 42 43 43 43 44 46 48 48 49 48 48 48 49 50 51 51 50 49 48 46 44 43 41 38 34 31 29 27 25 23 22 18 13 12 14 13 11 9 9 8
37 37 37 37 36 36 35 35 34 34 34 33 33 33 33 33 32 31 31 31 30 30 29 28 28 27 26 25 25 25 26 27 28 30 32 33 35 37 39 41 43 44 44 43 43 42 42 42 42 42 43 42 43 45 46 48 48 47 47 50 51 51 51 51 51 50 50 48 45 43 41 39 37 33 32 29 26 24 23 19 15 15 16 16 14 12 10 8
38 38 38 37 37 36 36 35 35 35 34 34 34 34 33 33 33 32 31 31 31 30 29 28 27 26 24 23 23 23 23 25 26 28 30 32 34 36 37 39 42 43 44 44 43 43 43 43 43 43 42 42 42 44 45 46 45 46 49 50 50 50 50 52 53 52 51 50 48 45 43 41 39 36 34 32 28 25 25 22 19 18 19 19 17 13 11 10
38 38 38 38 37 37 36 36 36 35 35 35 35 34 34 34 33 32 31 31 31 30 29 27 26 25 23 22 21 21 21 22 24 26 28 30 32 34 36 38 40 42 43 44 44 44 44 44 44 43 43 43 43 43 45 44 43 46 49 48 49 50 49 52 54 51 50 50 49 47 46 44 42 39 36 34 32 29 27 25 23 21 20 20 19 15 13 12
38 38 38 38 37 37 37 37 36 36 36 36 35 35 34 34 32 32 32 31 30 30 29 27 25 24 23 21 20 20 20 21 22 24 26 28 30 33 35 37 39 40 42 43 44 44 44 44 44 44 44 44 43 44 44 42 43 45 46 47 50 50 48 51 53 51 49 50 49 48 47 46 44 42 39 36 35 32 30 29 26 24 23 22 20 18 16 15
38 38 38 38 38 38 37 37 37 37 36 36 36 35 35 34 32 31 32 31 30 29 28 26 25 24 22 20 19 18 19 20 21 22 24 27 29 32 34 36 37 39 40 41 43 44 44 44 44 45 45 44 43 44 44 43 43 45 45 46 49 49 48 50 51 51 50 49 50 50 48 47 44 44 43 40 36 34 32 31 29 27 27 25 23 21 19 18
38 38 38 38 38 38 38 38 38 37 37 37 36 36 35 33 32 31 31 31 30 29 27 26 25 23 21 19 18 18 18 19 20 21 23 25 28 30 32 34 36 37 38 40 41 42 43 43 44 45 45 44 45 45 45 44 45 46 45 46 47 47 48 48 48 50 51 50 51 51 51 50 48 45 44 43 39 36 34 32 31 29 30 28 26 24 22 20
39 39 39 39 39 39 39 38 38 38 37 37 36 36 34 33 31 29 30 30 31 29 26 25 24 21 19 19 18 18 18 18 19 21 22 24 27 29 31 33 34 36 37 38 39 40 42 43 43 44 45 45 45 45 45 45 46 46 45 44 45 45 46 47 46 48 51 51 51 53 53 52 51 48 46 45 43 39 36 35 33 32 31 30 29 27 24 23
40 40 40 40 39 40 39 39 39 38 37 37 36 35 34 32 30 29 28 29 31 29 25 24 23 20 18 18 17 17 17 18 19 21 22 24 26 28 30 31 33 34 36 37 38 39 40 41 43 43 44 45 45 45 46 46 46 46 44 44 45 45 46 47 47 49 52 53 53 54 54 53 52 50 48 48 47 43 39 37 37 35 32 32 31 30 27 25
41 41 40 40 40 40 40 39 39 38 37 37 36 35 33 32 29 28 27 27 29 29 26 23 22 19 18 18 17 16 17 18 19 20 22 24 25 27 28 30 32 33 35 36 37 38 39 40 42 43 43 44 45 46 46 46 46 46 45 45 46 46 46 47 48 49 51 53 53 52 53 53 52 51 49 49 49 45 40 39 40 37 34 34 34 33 30 27
42 42 41 41 41 40 40 40 39 38 37 36 35 34 32 31 29 27 26 26 27 27 26 24 21 18 18 18 17 16 16 17 18 20 22 23 25 27 28 29 31 32 34 35 36 37 38 39 40 41 42 43 44 45 45 45 45 45 45 45 46 46 46 47 47 47 49 50 51 52 54 55 54 53 52 51 49 46 42 41 41 38 36 36 36 35 33 30
42 42 42 41 41 40 39 39 38 37 36 35 34 33 31 29 28 26 26 26 27 26 25 24 21 18 17 18 18 17 16 17 18 20 22 23 25 26 28 29 30 31 33 34 34 35 36 38 39 40 40 42 43 43 44 44 45 45 45 45 46 47 47 47 47 47 47 48 51 54 55 55 55 54 53 53 52 49 44 42 42 40 38 38 38 37 35 33
41 40 40 40 39 39 38 37 37 35 34 33 33 31 30 28 26 26 26 26 26 26 25 23 21 18 17 18 18 17 17 18 19 20 22 23 25 26 27 28 29 30 32 32 33 34 35 36 37 38 39 40 41 42 43 43 44 44 44 45 46 46 47 47 47 47 47 48 52 55 56 56 55 54 54 54 54 53 48 45 44 42 40 40 39 39 38 35
38 38 38 38 37 37 36 35 35 34 32 32 31 30 29 27 26 26 26 26 25 25 25 23 20 19 17 17 18 18 18 18 19 20 22 23 24 25 26 27 28 29 30 31 31 32 33 34 35 36 37 38 39 40 41 43 43 44 44 45 46 46 47 47 47 47 48 50 53 55 55 55 54 54 56 55 54 53 50 47 46 44 42 41 41 41 40 37
37 37 36 36 36 35 34 34 33 32 31 30 30 29 28 27 26 26 27 27 25 24 24 23 21 19 18 17 18 18 18 18 19 20 22 23 24 25 26 27 27 28 29 30 30 30 31 33 33 34 36 36 38 39 40 41 42 43 44 44 45 46 46 47 47 47 49 51 52 53 53 53 53 55 56 57 55 53 51 49 48 46 44 42 42 43 43 41
37 37 36 36 35 34 34 33 33 32 31 30 30 30 29 28 27 27 26 27 27 24 22 22 22 20 18 18 18 18 18 19 20 21 22 23 24 25 26 27 28 28 29 29 29 29 30 31 31 32 33 34 36 37 39 40 41 42 43 44 44 45 46 47 47 48 50 50 50 51 51 51 52 53 55 57 58 55 52 51 49 48 45 43 43 44 45 44
38 37 37 36 35 34 34 33 33 32 31 31 31 31 31 30 29 29 27 26 27 27 23 21 22 21 20 19 18 17 18 20 20 21 22 23 24 25 27 27 28 28 29 28 28 28 28 28 29 30 31 32 33 35 37 38 39 41 42 43 44 44 46 47 47 48 49 49 49 51 53 52 53 53 54 57 59 59 56 53 50 50 48 45 45 46 46 46
41 39 38 37 36 35 34 33 33 33 32 32 33 33 32 31 30 30 29 26 25 27 25 22 21 22 21 20 19 18 18 19 20 21 22 22 24 26 27 27 27 28 28 27 26 26 26 26 27 27 28 30 31 33 35 36 38 39 40 42 43 44 45 47 47 48 48 49 50 52 52 53 53 54 55 58 60 61 60 56 53 51 51 49 49 49 46 45
44 42 40 39 37 36 35 34 33 33 33 33 34 35 33 32 32 30 30 29 26 26 25 23 22 22 21 21 20 19 18 19 21 22 22 22 24 26 27 26 26 27 26 24 24 24 23 23 24 25 26 28 29 31 33 34 36 38 38 40 41 42 44 46 47 47 48 49 50 50 50 52 53 54 56 58 59 60 60 59 56 54 53 52 53 51 45 43
46 45 42 41 40 38 36 35 34 33 33 33 34 34 32 31 32 31 30 30 28 26 24 23 24 23 20 21 21 21 19 19 21 22 22 22 25 26 25 25 25 25 23 21 21 21 21 22 23 24 26 28 29 30 31 33 35 36 37 39 39 40 42 44 46 47 47 49 49 48 49 50 52 54 55 57 57 57 59 60 60 57 55 54 55 53 46 42
44 46 44 43 42 40 37 36 35 34 34 34 34 33 32 31 31 31 29 29 29 28 25 23 23 23 20 19 22 23 21 20 21 23 22 22 24 25 23 23 23 22 21 20 20 20 21 22 22 24 27 28 29 30 32 34 36 35 36 37 38 39 41 43 44 45 46 48 48 48 48 49 51 53 56 56 55 55 58 61 63 61 57 56 57 54 48 43
42 43 43 44 45 42 39 37 35 34 34 34 34 33 31 29 30 30 29 27 27 27 26 23 23 24 21 18 22 24 20 19 21 23 22 22 22 21 21 21 22 21 20 19 20 21 22 22 22 24 28 29 29 30 32 35 36 36 36 37 38 40 41 41 42 43 45 47 48 48 47 49 51 53 56 57 56 56 57 60 64 65 62 59 58 55 49 43
41 40 39 42 46 44 41 40 37 34 34 34 33 33 31 29 29 29 27 27 27 26 25 23 23 24 21 19 24 24 20 20 22 22 22 21 19 19 21 22 21 20 20 19 20 22 22 22 22 25 28 28 28 30 32 33 34 36 37 37 39 40 40 41 41 42 44 45 47 48 47 49 51 53 55 57 59 59 57 60 65 67 66 62 59 55 50 45
44 40 36 39 46 45 42 42 38 35 34 34 33 32 31 30 29 26 25 27 26 24 24 23 22 23 22 21 24 24 24 24 23 22 21 19 18 20 23 23 20 20 20 19 21 23 22 22 24 26 28 28 27 28 29 29 31 33 35 36 38 39 40 42 42 43 44 44 45 47 48 49 52 53 55 57 62 62 58 59 64 67 67 64 58 52 49 48
47 42 36 38 44 44 42 43 40 37 36 35 32 31 31 32 31 25 23 27 26 23 23 23 21 22 22 22 24 26 28 27 24 22 21 20 21 24 24 22 20 20 19 20 23 23 22 24 26 27 28 29 27 24 24 27 29 29 31 32 33 35 38 41 43 45 46 45 45 46 47 50 52 53 55 58 61 64 62 62 64 66 66 65 57 46 40 44
48 46 40 38 41 43 42 42 41 39 39 36 33 32 31 32 32 27 23 26 25 22 22 22 21 22 22 23 26 29 31 29 25 23 23 23 25 26 24 22 20 20 21 22 24 23 23 26 28 28 30 30 26 22 22 26 27 26 27 27 27 29 32 37 40 43 46 46 46 46 47 49 52 53 55 58 59 62 64 64 64 64 65 65 60 46 36 38
49 48 44 40 41 42 40 39 41 41 40 38 35 33 31 30 32 30 25 24 25 23 22 21 21 20 21 24 28 31 33 32 28 26 25 25 28 27 24 21 21 22 24 24 23 23 25 28 29 29 31 30 26 23 23 26 26 24 25 26 25 25 28 32 35 38 43 45 47 48 48 49 52 55 57 58 59 61 62 61 63 65 65 67 64 52 40 37
50 49 47 43 41 42 39 38 41 43 42 40 36 34 32 30 30 31 28 25 25 24 22 21 22 21 21 24 28 30 34 34 31 28 27 28 30 27 24 24 23 25 26 25 24 25 27 29 30 31 32 30 26 24 24 26 27 26 26 26 25 26 27 29 31 33 37 41 45 49 50 50 52 55 58 59 60 62 62 60 62 65 66 68 66 58 48 42
50 50 48 44 41 42 40 38 40 43 44 41 38 35 33 31 30 30 30 27 25 25 24 22 22 22 21 23 26 29 34 36 34 31 30 30 30 28 27 27 26 27 28 27 26 27 28 29 30 32 33 31 28 26 26 26 28 28 28 27 27 28 29 30 30 31 33 36 41 46 50 52 54 56 58 60 62 64 64 63 62 64 67 70 69 63 56 49
51 50 48 44 40 42 43 40 37 41 44 42 39 37 35 34 32 30 30 29 27 26 26 23 23 23 22 23 24 27 32 37 36 34 33 32 31 30 30 30 28 29 30 29 29 30 30 30 31 32 34 32 29 28 27 27 28 29 29 29 29 30 31 32 32 31 31 34 37 41 46 51 55 57 59 61 63 64 65 65 64 64 68 71 72 69 61 54
50 50 48 45 42 42 43 41 37 38 43 43 41 40 38 37 34 31 29 29 29 28 28 26 24 23 22 22 24 25 28 34 37 37 36 34 33 33 34 33 32 32 32 31 32 32 31 31 32 33 34 32 30 29 28 28 28 29 30 30 30 31 32 33 33 32 32 33 35 38 42 47 53 57 60 62 64 65 65 65 65 66 69 71 74 75 69 59
49 50 48 46 45 43 41 42 40 38 41 44 44 42 41 39 37 34 31 30 31 30 29 29 27 24 23 23 24 24 25 29 33 35 36 37 37 37 36 34 35 35 34 32 34 34 32 32 34 34 34 32 30 29 29 28 28 29 30 30 31 31 32 33 33 33 33 34 35 38 40 43 49 57 61 63 65 66 66 66 66 68 70 71 74 78 79 72
49 51 49 46 45 43 41 42 42 40 40 43 45 45 43 41 40 38 34 30 29 30 31 32 30 27 25 24 25 25 26 27 28 30 33 36 36 36 36 34 34 36 36 35 35 35 34 33 34 35 33 32 30 29 28 28 28 29 28 29 30 31 32 32 33 33 33 34 36 38 40 41 45 54 60 64 66 67 67 67 67 69 71 73 74 77 82 81
49 51 49 46 45 44 42 42 43 42 41 42 45 47 46 44 42 42 37 31 29 31 32 33 34 31 28 27 27 27 28 29 28 27 29 32 33 34 35 35 34 36 38 37 35 36 35 35 35 35 32 31 29 28 27 27 27 28 27 27 28 30 30 31 33 33 34 34 36 39 41 41 43 50 57 63 66 67 69 69 69 70 71 73 76 77 79 80
49 50 49 47 45 45 43 42 42 43 43 42 44 47 48 46 45 43 40 34 32 32 31 30 33 33 32 31 31 31 32 31 30 28 30 32 33 34 35 36 36 37 38 37 36 36 36 35 36 35 32 30 28 27 27 27 27 28 28 28 28 30 30 31 32 33 33 34 36 38 40 41 42 46 52 60 65 68 70 71 71 71 70 72 76 77 78 79
Wind_Direction
262 264 265 266 267 268 269 269 269 269 269 269 269 268 268 267 265 263 261 259 258 255 254 253 252 251 251 250 249 247 246 244 243 242 243 243 243 242 242 241 241 240 240 239 238 236 235 234 235 235 235 234 231 232 237 237 235 232 228 233 235 237 240 240 246 246 247 253 254 269 281 291 313 335 346 358 3 2 360 359 6 11 11 13 16 18 18 17
264 266 267 267 268 268 269 269 269 269 269 269 269 269 269 268 268 266 265 263 261 259 257 255 253 252 251 250 250 249 248 246 244 243 242 242 242 242 242 241 241 240 240 239 239 237 235 234 234 234 235 234 231 230 234 236 235 234 232 232 235 244 247 243 240 244 257 261 255 271 283 283 304 323 336 355 6 4 360 357 4 10 10 12 17 19 20 19
269 270 270 270 270 270 270 270 270 270 270 270 269 269 269 269 268 268 267 265 264 262 260 258 256 254 252 251 250 249 249 248 246 243 242 242 242 242 241 241 241 240 240 239 239 238 236 234 233 233 233 234 233 230 232 235 234 234 234 234 238 244 249 249 247 250 263 266 259 262 264 268 292 307 324 352 7 4 359 356 4 11 10 11 17 19 21 20
274 274 273 273 273 273 272 272 272 271 271 271 270 270 269 269 269 269 268 267 266 264 263 261 259 257 255 254 252 250 249 249 247 245 243 241 241 241 241 240 240 240 239 238 238 238 237 235 234 232 232 233 233 231 232 234 234 235 236 236 238 241 247 251 254 260 268 267 261 255 250 263 286 296 312 338 2 1 354 354 4 11 9 10 14 18 20 21
277 277 276 276 275 275 275 275 274 274 273 273 272 271 271 270 270 269 269 268 268 266 265 264 262 260 258 256 254 253 251 249 248 247 244 242 240 240 240 240 239 239 239 238 237 237 236 236 234 233 232 232 233 233 232 233 235 238 240 240 238 239 244 249 253 259 266 263 254 254 250 257 275 285 304 328 350 358 353 354 2 9 8 7 10 16 19 20
278 278 278 278 278 278 278 278 277 276 276 275 274 274 273 272 271 271 270 270 269 268 267 266 264 263 261 259 257 255 253 251 250 248 245 243 241 239 239 239 238 238 238 237 237 236 236 235 235 234 232 231 232 233 232 233 234 237 239 239 239 239 241 246 248 249 260 257 242 247 246 248 269 279 293 314 331 350 350 350 359 5 6 6 6 11 17 19
280 280 280 281 282 282 282 281 280 279 278 277 276 276 275 274 273 272 271 271 270 269 269 267 266 264 262 261 259 257 255 253 251 249 247 244 242 240 238 238 238 237 237 237 236 236 235 234 234 234 233 231 231 232 232 232 234 236 237 237 238 239 240 242 242 239 250 257 244 242 242 246 269 278 285 304 327 345 343 340 352 0 4 5 3 5 12 16
282 282 283 284 285 285 285 284 283 282 281 280 279 278 277 276 275 274 273 272 271 270 269 268 267 265 263 261 259 257 255 253 252 251 249 246 244 241 239 237 238 237 236 236 236 236 234 233 233 233 233 232 231 231 232 232 233 234 235 236 236 238 238 239 240 234 239 256 252 241 244 251 260 269 278 290 314 330 329 328 340 356 1 2 1 1 6 12
284 285 287 288 288 288 288 287 286 286 285 284 282 281 280 278 277 276 275 274 273 272 271 270 269 267 264 262 259 257 255 252 252 252 250 248 245 243 240 238 237 237 236 235 235 235 234 232 232 232 233 233 232 231 231 231 233 233 234 235 236 237 237 236 235 232 235 243 240 237 247 256 254 260 273 279 289 286 289 305 329 349 356 357 358 359 2 7
287 289 290 291 291 290 290 289 289 289 289 288 286 285 283 282 280 279 277 276 275 274 273 272 270 268 266 264 261 258 255 252 251 251 250 248 246 244 242 239 238 236 235 235 234 234 233 232 232 231 231 231 232 231 231 231 232 233 234 234 235 236 236 234 232 233 235 231 231 236 240 249 256 261 268 274 278 276 276 288 318 338 346 351 356 357 360 3
291 292 293 294 294 293 293 293 293 293 293 291 290 288 287 285 284 282 280 278 277 276 275 274 272 270 268 265 263 259 256 253 249 248 248 247 246 244 242 240 238 237 235 234 234 233 233 232 231 230 230 230 231 231 231 231 231 231 232 233 233 234 235 234 233 234 233 226 228 234 235 245 258 258 262 268 268 273 277 284 305 326 335 342 350 355 358 359
293 295 296 296 296 295 296 297 297 297 296 295 294 292 290 288 287 285 283 281 279 278 276 275 273 271 269 267 264 261 258 254 250 247 245 245 244 243 242 240 239 237 235 234 233 233 232 231 230 230 229 229 230 230 230 230 230 230 231 232 232 232 233 234 235 234 232 229 228 232 236 245 254 253 254 258 261 265 268 273 279 297 322 332 341 350 354 356
295 296 296 296 296 297 299 300 300 300 299 298 297 295 294 292 290 288 286 284 282 280 278 276 274 272 270 268 266 263 260 255 251 247 244 243 242 241 241 240 239 237 236 234 233 233 232 230 229 229 228 228 229 229 229 230 230 229 230 231 232 231 230 231 233 234 234 234 233 236 242 246 251 252 252 252 254 260 263 267 271 277 313 322 328 344 348 351
295 295 296 297 298 299 300 301 301 301 300 299 298 297 296 294 292 291 289 287 285 283 281 279 276 274 271 268 266 264 261 257 252 248 244 241 240 240 239 239 238 237 236 235 234 233 232 231 230 229 228 227 228 228 229 229 229 229 229 230 231 231 231 230 231 233 235 236 236 239 243 245 248 250 252 251 247 250 256 261 268 277 301 305 312 335 341 344
294 294 296 297 299 300 300 301 301 301 300 300 299 299 298 297 295 294 292 291 288 286 284 282 279 276 273 270 267 263 260 257 252 248 244 241 239 238 237 237 237 236 235 234 234 233 232 231 230 229 228 227 227 227 228 228 228 229 228 229 231 232 232 232 232 232 233 235 236 238 240 241 244 249 248 242 235 236 246 249 252 265 273 274 291 318 331 337
293 294 296 297 298 299 300 300 300 300 300 300 300 299 299 298 297 296 295 294 292 290 288 286 282 279 275 271 267 263 259 256 252 248 244 240 238 236 235 235 235 235 234 233 232 232 232 231 231 230 229 228 227 227 228 228 228 229 229 229 230 232 233 233 234 234 233 234 236 238 240 239 241 246 242 233 227 229 240 244 239 250 256 250 270 298 316 327
293 294 295 296 297 298 298 299 300 300 300 300 300 300 299 299 298 298 298 297 295 293 292 289 286 282 278 273 269 264 259 255 251 247 243 239 236 235 234 233 233 233 233 232 232 232 231 230 231 230 230 228 227 228 228 228 228 229 228 229 229 231 232 232 233 234 235 235 237 238 238 238 238 239 237 234 233 232 237 244 239 241 250 247 254 277 297 313
292 293 294 295 296 297 298 299 299 300 300 300 301 300 300 300 299 300 299 298 296 295 294 292 289 285 280 276 270 265 259 254 250 246 242 238 235 233 232 231 231 232 232 231 231 231 231 231 231 230 230 229 228 229 229 228 228 228 228 228 228 229 231 231 232 232 234 234 235 237 237 236 234 234 237 238 239 236 234 239 235 232 243 246 244 255 275 296
291 292 293 294 295 297 298 299 299 300 300 301 301 301 301 300 301 301 300 299 298 297 296 294 292 288 283 278 272 265 260 254 249 245 241 237 234 232 231 230 230 230 230 231 230 231 231 231 231 231 231 230 230 230 229 228 228 228 227 227 227 228 230 231 231 231 232 232 233 235 235 233 230 233 236 237 238 235 229 231 226 224 236 242 240 242 255 276
290 291 292 294 295 296 298 298 299 300 300 301 301 301 302 302 302 303 302 300 300 299 298 296 293 289 285 280 274 266 259 254 248 244 240 237 234 231 230 229 229 229 229 230 230 230 231 231 231 231 232 231 231 231 231 229 228 228 228 227 227 227 229 231 231 230 231 231 232 233 234 233 230 231 233 233 235 232 227 226 220 220 230 237 241 240 244 259
289 291 292 293 295 296 297 298 299 300 300 301 301 302 302 302 303 304 303 301 301 300 299 297 295 291 287 281 274 267 260 253 248 244 240 236 233 231 229 227 227 227 228 228 229 230 230 231 231 232 232 231 231 233 232 230 228 229 229 228 227 226 227 231 231 230 231 231 232 232 233 234 232 230 231 230 231 232 227 223 219 221 226 233 241 239 238 247
289 291 292 293 294 295 297 298 299 299 300 300 301 302 302 303 304 304 303 302 301 301 300 299 296 293 288 282 275 268 261 253 247 243 239 235 232 230 228 227 226 226 227 227 228 229 230 230 231 232 232 232 232 233 234 231 230 231 230 228 228 226 225 230 232 229 229 231 232 231 231 233 232 229 229 228 229 231 227 220 219 222 223 228 237 237 236 243
290 291 292 293 294 295 296 297 298 299 299 300 301 301 302 303 304 304 302 301 301 301 301 300 297 293 288 282 276 269 261 253 246 241 237 234 231 229 228 226 226 226 226 227 227 229 230 230 231 232 233 232 232 233 234 232 231 232 231 229 228 226 224 228 231 230 228 229 230 230 228 229 230 227 227 228 229 230 225 218 217 220 222 225 232 234 234 239
290 291 292 293 294 295 296 297 297 298 299 300 301 301 301 302 303 303 302 300 300 300 301 301 297 293 288 281 276 269 261 253 246 240 236 233 230 229 227 226 226 226 225 226 227 228 229 230 230 232 233 232 233 233 233 233 232 232 231 230 228 227 225 226 229 230 228 227 229 230 228 227 228 227 226 226 227 228 224 215 213 216 219 223 229 233 233 237
291 292 292 293 294 294 295 296 297 298 299 300 300 300 301 302 302 302 300 300 300 300 302 301 297 293 287 280 274 268 261 254 246 240 235 231 229 228 227 226 225 225 225 226 226 227 228 229 230 231 232 232 233 234 234 233 233 233 232 232 231 229 227 224 225 229 229 227 227 228 228 226 226 225 225 225 225 227 224 216 213 214 218 221 226 232 233 236
291 291 292 293 293 294 295 296 296 297 298 299 299 299 300 301 301 300 299 300 300 300 302 301 298 293 285 277 273 268 261 254 247 240 235 231 228 227 226 226 225 225 225 226 226 227 227 229 229 230 231 232 233 234 234 234 234 234 233 233 233 231 228 224 223 226 227 226 225 226 227 227 226 224 224 225 224 226 226 219 215 216 218 219 222 229 233 235
290 290 291 292 292 293 294 295 295 296 297 297 298 298 299 299 300 298 298 299 299 301 303 301 297 292 283 276 273 266 260 254 248 241 235 230 227 226 225 225 225 225 225 226 226 227 228 229 229 230 231 232 233 234 235 235 235 235 235 233 233 233 230 226 224 225 227 228 226 227 227 227 225 222 221 223 223 225 226 221 216 216 217 218 220 225 230 233
289 290 290 291 291 292 293 294 294 295 295 296 296 297 297 298 298 297 297 297 297 300 302 299 295 289 282 277 271 264 259 254 247 241 236 231 227 225 224 224 224 225 225 226 226 227 228 229 230 231 232 233 234 235 235 236 236 236 236 235 234 234 232 229 227 225 227 228 228 227 226 225 225 222 220 221 222 222 222 220 216 214 214 216 219 222 227 230
289 289 290 290 291 291 292 293 293 294 294 294 295 295 295 296 296 296 297 297 298 300 300 297 294 287 279 276 270 263 257 250 245 240 236 232 228 225 223 223 223 224 225 226 227 228 229 230 231 232 233 234 235 236 236 237 238 237 237 236 236 235 233 231 229 226 226 227 228 227 225 224 224 223 221 220 221 220 220 221 217 212 210 214 218 220 224 229
290 290 290 290 291 291 292 292 292 293 293 293 293 293 294 294 294 295 295 296 298 300 298 296 292 285 277 274 270 264 256 249 243 239 235 232 229 226 224 223 223 224 225 226 227 229 230 231 232 233 234 235 236 237 238 238 239 239 238 237 237 236 235 233 231 229 227 226 228 227 225 223 223 223 221 219 219 219 221 222 218 212 210 211 217 221 222 227
292 292 291 291 292 292 292 292 292 293 293 293 292 292 292 292 293 294 294 295 297 299 297 294 291 285 277 272 269 264 257 249 243 238 234 231 229 227 225 223 222 224 225 225 227 228 230 231 233 234 235 236 237 238 239 239 240 239 239 238 238 237 237 235 232 230 228 227 228 228 225 223 223 223 221 219 218 219 220 220 217 214 212 211 216 222 223 222
294 294 294 293 293 293 293 293 292 292 292 292 291 290 290 290 291 292 293 294 295 295 294 292 289 283 276 269 265 263 259 251 243 238 233 230 228 225 223 222 221 222 224 224 225 227 229 231 233 235 236 237 238 238 239 240 240 240 240 240 239 238 238 237 234 231 230 228 228 228 227 224 224 225 222 219 217 216 216 216 215 214 212 212 216 221 224 221
293 293 294 294 294 294 293 293 292 292 291 290 289 289 289 289 290 290 291 293 293 291 290 289 287 282 275 267 262 260 259 253 244 237 233 228 226 223 221 220 219 220 222 223 224 226 229 232 233 235 237 238 239 240 240 241 242 242 241 241 241 240 239 238 236 234 232 230 228 229 228 225 224 226 224 220 217 214 213 213 214 214 212 212 215 219 225 224
291 291 292 292 293 293 293 292 291 291 289 288 287 286 287 288 288 288 288 290 292 291 289 286 283 280 274 266 259 256 255 254 247 239 234 229 224 222 220 219 218 218 220 222 223 225 228 231 233 235 238 239 241 242 242 242 243 243 243 243 242 241 241 239 238 236 235 232 228 227 226 224 224 225 225 223 218 215 214 213 214 215 212 211 211 214 222 227
289 289 289 290 290 290 291 291 290 290 288 287 285 285 286 287 287 288 288 287 287 287 287 283 278 275 271 266 259 254 251 251 247 240 234 229 223 221 220 218 217 218 220 221 222 224 227 232 236 238 240 241 243 245 246 245 245 245 244 244 243 242 242 241 239 238 237 234 230 227 225 223 223 223 224 224 220 216 216 214 214 215 213 211 211 211 216 224
287 286 286 287 288 287 288 288 288 288 287 286 285 285 286 287 286 287 287 287 284 282 282 280 275 270 267 264 258 253 248 245 243 239 233 227 221 220 220 217 216 218 219 220 223 226 229 235 240 243 247 248 247 248 248 249 248 247 246 246 245 243 243 242 241 239 238 236 232 228 226 224 223 222 222 224 222 218 217 215 214 215 214 212 213 213 214 219
285 284 284 284 284 285 286 286 286 285 286 285 284 286 287 287 286 286 286 286 283 281 278 275 273 268 262 259 257 253 246 239 236 235 231 223 219 220 219 216 216 219 220 220 225 230 234 240 244 248 251 253 253 254 254 253 251 249 249 248 246 246 244 243 241 240 239 238 234 229 226 224 223 223 223 224 223 220 218 216 214 214 213 212 213 215 215 215
286 283 282 281 281 282 283 284 283 283 283 283 284 286 287 287 286 286 285 283 282 281 276 272 270 267 260 253 252 250 244 236 232 230 227 220 217 219 218 215 215 218 220 223 229 236 241 246 252 257 258 257 257 258 259 258 256 252 251 250 248 246 245 244 242 240 238 238 235 230 227 225 222 221 222 223 223 221 219 218 215 213 213 213 214 217 217 214
290 286 283 279 278 278 279 280 281 282 281 280 281 283 285 287 287 286 286 283 280 277 274 272 268 265 258 245 244 247 242 232 228 226 222 218 215 214 213 214 216 220 224 229 237 244 248 252 258 265 267 266 265 263 262 261 261 257 252 250 249 247 245 244 243 241 238 237 236 231 227 226 222 220 220 220 220 221 220 218 216 214 213 214 216 218 218 215
293 291 288 281 276 274 274 275 277 280 280 279 278 279 283 286 285 285 287 284 279 275 273 271 266 263 257 240 236 241 237 224 220 218 216 215 211 207 212 218 221 226 232 238 246 252 257 261 266 271 273 274 274 273 269 266 264 261 256 251 248 246 245 244 242 241 239 236 235 231 227 227 224 219 219 219 217 218 218 218 216 214 214 216 218 221 222 219
295 294 293 286 277 273 271 271 273 276 278 278 277 277 279 280 281 284 286 283 279 276 273 270 265 262 254 239 230 232 231 222 215 214 213 214 214 213 218 223 226 232 239 245 253 259 265 272 275 278 281 281 280 280 278 273 268 263 258 253 248 245 243 242 240 239 239 236 234 231 227 226 225 220 218 219 218 217 217 216 216 214 212 215 218 221 225 223
297 295 294 289 283 279 272 268 269 271 273 275 277 276 275 275 277 281 282 281 280 276 271 268 264 259 253 240 226 224 228 224 217 215 214 214 219 222 225 228 231 239 246 251 257 264 273 278 280 284 286 287 286 283 281 275 269 264 260 255 251 246 242 240 238 236 236 236 233 231 227 225 225 220 217 218 219 218 217 216 216 214 211 211 212 213 219 223
297 297 294 290 287 284 277 269 266 267 269 271 274 274 272 271 273 276 277 279 278 275 270 268 264 257 252 242 226 220 226 227 221 217 216 216 222 227 230 234 239 247 251 254 261 270 276 279 283 287 289 290 290 284 278 273 270 266 263 258 252 248 243 239 237 235 234 233 232 231 227 225 224 221 218 217 218 219 218 216 215 215 211 209 208 205 206 214
296 296 295 292 289 286 284 276 267 263 265 266 268 270 271 270 270 271 272 275 276 273 269 267 263 256 249 243 231 222 225 228 224 220 218 221 228 233 236 240 245 249 253 257 264 271 274 277 284 289 289 291 290 282 275 274 272 268 264 261 255 250 246 241 238 236 234 232 230 229 227 224 223 222 219 216 216 218 219 216 214 214 210 208 206 203 198 202
294 295 295 294 290 287 287 280 268 261 260 261 262 266 268 268 267 266 266 268 270 271 267 265 263 256 245 242 236 225 225 229 227 223 221 226 234 239 242 244 247 251 256 260 263 266 271 278 285 288 290 292 288 279 276 276 274 270 265 262 258 254 250 245 242 238 236 232 229 227 226 224 222 222 220 216 215 217 218 216 214 213 210 207 205 202 199 197
291 293 294 295 293 289 286 279 268 260 256 256 258 260 264 265 264 263 262 261 263 267 266 261 260 255 246 242 239 230 226 230 230 228 226 229 237 244 247 249 251 254 259 262 263 266 270 276 282 286 289 291 286 279 277 277 275 272 268 264 260 257 254 251 247 243 240 237 231 227 225 223 222 221 220 217 215 216 216 215 215 213 210 208 205 201 199 197
289 291 294 295 292 286 282 280 273 263 256 254 254 255 258 260 261 261 260 258 257 260 261 258 256 255 249 244 242 235 229 230 232 232 232 233 238 245 249 253 254 255 257 261 263 266 270 274 279 283 287 288 284 278 277 276 275 273 270 267 263 260 258 255 251 246 244 242 236 229 225 224 222 221 220 218 216 215 215 214 214 212 210 209 206 202 199 197
287 289 292 292 288 284 282 281 278 267 256 251 250 250 253 255 258 260 260 257 253 252 256 257 253 253 251 245 244 240 234 232 232 234 236 237 240 243 248 254 256 255 256 259 263 266 269 273 277 280 285 286 282 279 278 278 276 274 272 269 266 263 260 258 255 250 246 244 241 234 227 224 223 221 219 218 216 214 214 214 213 211 210 209 207 203 201 201
285 286 288 290 289 286 282 280 277 270 258 250 246 246 249 251 255 257 257 256 253 250 250 253 252 251 251 247 245 244 239 235 234 234 237 239 242 245 248 253 256 257 257 258 262 266 269 272 275 279 283 284 281 280 280 280 278 276 274 272 269 265 262 260 258 254 249 244 243 239 230 225 225 222 218 217 217 215 213 212 211 210 210 209 208 206 205 209
282 284 287 289 289 286 280 276 275 271 261 251 245 243 245 247 251 254 252 253 256 252 247 249 251 249 248 248 247 246 244 240 237 235 237 240 243 247 250 251 253 257 259 259 262 266 268 270 273 278 281 281 279 280 281 281 279 277 275 274 272 268 265 263 260 257 253 247 243 241 235 228 226 224 220 217 216 215 213 211 211 210 209 209 210 208 208 211
281 282 286 287 286 283 278 274 272 270 263 254 245 242 243 244 247 250 249 248 254 255 249 247 249 248 247 248 248 248 247 245 242 239 240 242 243 245 249 250 251 255 259 262 264 265 268 270 272 276 278 278 278 279 280 279 277 276 276 275 273 271 268 266 263 260 257 252 246 242 238 232 227 225 222 219 216 215 214 211 210 210 209 208 210 210 210 211
279 280 282 284 283 280 276 272 269 265 262 257 248 241 240 241 243 246 248 246 249 253 253 251 251 250 249 248 249 249 249 248 247 245 244 246 247 246 249 251 252 254 257 260 262 263 266 269 272 275 277 276 276 278 277 276 276 277 277 275 273 272 269 267 264 263 261 256 250 243 239 236 231 226 224 221 217 214 214 212 210 209 210 209 209 210 211 211
Height
10942 10942 10942 10942 10942 10942 10942 10942 10942 10942 10942 10942 10941 10941 10941 10941 10942 10942 10942 10943 10943 10944 10945 10946 10947 10948 10949 10950 10951 10953 10954 10956 10958 10960 10962 10962 10964 10966 10967 10969 10971 10973 10975 10976 10978 10980 10983 10985 10986 10988 10989 10991 10993 10993 10992 10993 10994 10996 10997 10998 10998 10998 10998 10998 10999 10999 10999 11000 11002 11001 11000 10999 10998 10997 10997 10996 10995 10994 10993 10993 10992 10990 10989 10988 10986 10984 10982 10980
10941 10941 10940 10940 10941 10941 10941 10941 10940 10940 10940 10940 10939 10939 10939 10939 10938 10939 10939 10939 10940 10940 10941 10942 10943 10944 10945 10946 10947 10948 10950 10951 10954 10957 10958 10958 10960 10962 10963 10965 10967 10969 10971 10973 10975 10977 10979 10982 10983 10985 10987 10988 10990 10991 10991 10991 10993 10995 10995 10995 10996 10996 10996 10996 10998 10998 10999 11000 11000 11000 10999 10998 10997 10997 10996 10996 10995 10995 10994 10994 10993 10991 10990 10988 10987 10985 10983 10981
10939 10939 10939 10939 10939 10939 10939 10939 10939 10938 10938 10938 10937 10937 10936 10936 10936 10936 10936 10936 10936 10937 10937 10938 10939 10940 10941 10942 10943 10944 10945 10947 10950 10952 10953 10954 10956 10957 10959 10961 10963 10965 10967 10969 10971 10973 10976 10978 10980 10982 10984 10986 10987 10989 10989 10989 10991 10993 10992 10993 10994 10994 10994 10995 10996 10997 10998 10999 10998 10999 10998 10997 10996 10996 10996 10996 10996 10995 10995 10994 10993 10992 10991 10989 10987 10986 10984 10982
10938 10938 10937 10937 10937 10937 10937 10937 10937 10936 10936 10935 10935 10934 10934 10934 10933 10933 10933 10933 10933 10933 10934 10935 10936 10937 10937 10938 10939 10940 10941 10943 10945 10946 10948 10951 10952 10953 10955 10956 10958 10960 10962 10964 10966 10969 10972 10974 10977 10979 10981 10983 10984 10985 10986 10987 10988 10989 10989 10990 10991 10992 10992 10993 10995 10996 10997 10997 10997 10997 10997 10996 10996 10996 10996 10996 10996 10995 10995 10995 10994 10993 10991 10990 10988 10987 10985 10983
10936 10936 10936 10935 10935 10935 10935 10935 10935 10934 10934 10933 10932 10932 10932 10931 10931 10930 10930 10929 10929 10930 10930 10931 10932 10933 10934 10934 10935 10936 10938 10940 10940 10941 10944 10946 10947 10949 10950 10952 10954 10955 10957 10960 10962 10965 10968 10970 10973 10976 10978 10980 10981 10983 10984 10985 10986 10986 10987 10988 10988 10989 10990 10991 10993 10994 10995 10995 10996 10996 10996 10995 10995 10996 10996 10996 10996 10996 10996 10996 10995 10994 10992 10991 10989 10988 10986 10984
10934 10934 10934 10933 10933 10933 10933 10932 10932 10931 10931 10930 10930 10929 10929 10928 10928 10927 10927 10926 10926 10926 10927 10927 10928 10929 10930 10930 10931 10932 10934 10936 10936 10936 10939 10941 10943 10945 10946 10947 10949 10951 10953 10955 10957 10960 10964 10966 10969 10972 10974 10977 10978 10979 10981 10983 10983 10983 10985 10985 10986 10986 10988 10989 10991 10993 10993 10994 10995 10995 10994 10994 10994 10995 10996 10996 10996 10996 10996 10996 10995 10994 10993 10992 10990 10989 10987 10985
10933 10932 10932 10931 10931 10931 10930 10930 10929 10929 10928 10928 10927 10926 10926 10925 10925 10924 10924 10923 10923 10923 10923 10923 10924 10925 10926 10926 10927 10928 10930 10931 10931 10932 10934 10936 10938 10940 10942 10943 10944 10946 10948 10951 10953 10956 10959 10962 10965 10967 10970 10972 10975 10976 10978 10980 10981 10981 10982 10983 10983 10983 10985 10988 10990 10991 10992 10993 10994 10994 10993 10994 10994 10994 10995 10996 10996 10997 10997 10996 10996 10995 10994 10993 10991 10990 10989 10987
10931 10930 10930 10929 10929 10928 10928 10927 10926 10926 10925 10925 10924 10923 10923 10922 10921 10921 10920 10920 10919 10919 10919 10919 10920 10920 10921 10922 10922 10923 10925 10926 10926 10928 10930 10932 10934 10936 10937 10939 10940 10942 10944 10946 10948 10951 10955 10958 10960 10962 10965 10968 10971 10973 10975 10977 10977 10978 10979 10980 10980 10980 10983 10986 10988 10989 10991 10992 10993 10993 10993 10993 10994 10994 10994 10996 10996 10997 10997 10997 10996 10996 10995 10994 10992 10991 10990 10988
10929 10928 10928 10927 10927 10926 10925 10924 10923 10923 10922 10921 10921 10920 10919 10919 10918 10917 10917 10916 10915 10915 10915 10915 10915 10916 10916 10917 10918 10919 10920 10921 10923 10924 10926 10927 10929 10931 10932 10934 10936 10937 10939 10941 10944 10947 10950 10953 10955 10959 10962 10964 10966 10968 10971 10972 10973 10975 10976 10977 10978 10978 10981 10984 10986 10988 10989 10991 10992 10992 10992 10992 10993 10993 10994 10995 10996 10997 10997 10997 10997 10996 10996 10995 10993 10992 10991 10990
10926 10926 10926 10925 10924 10923 10922 10922 10921 10920 10919 10918 10918 10917 10916 10915 10914 10914 10913 10912 10912 10911 10911 10911 10911 10911 10912 10912 10913 10914 10914 10917 10919 10919 10921 10923 10924 10926 10928 10929 10931 10933 10935 10937 10940 10942 10944 10948 10952 10955 10957 10958 10961 10964 10966 10968 10969 10971 10972 10973 10974 10976 10979 10981 10982 10985 10987 10989 10990 10990 10991 10991 10992 10992 10993 10995 10996 10996 10996 10997 10997 10997 10996 10995 10994 10993 10992 10991
10924 10924 10923 10922 10922 10921 10920 10919 10918 10917 10916 10915 10914 10913 10913 10912 10911 10910 10909 10909 10908 10907 10907 10907 10907 10906 10907 10907 10908 10909 10910 10912 10914 10915 10916 10918 10919 10921 10923 10925 10926 10928 10931 10933 10935 10937 10940 10944 10948 10949 10951 10954 10957 10960 10961 10963 10965 10967 10968 10968 10971 10974 10976 10977 10979 10983 10985 10986 10987 10988 10989 10990 10991 10992 10992 10994 10995 10995 10996 10996 10997 10997 10997 10996 10995 10993 10992 10992
10922 10921 10920 10920 10919 10918 10917 10916 10915 10914 10913 10912 10911 10910 10909 10908 10907 10906 10906 10905 10904 10904 10903 10902 10902 10902 10902 10902 10903 10904 10905 10906 10908 10910 10911 10913 10914 10916 10918 10920 10922 10924 10926 10929 10931 10933 10936 10939 10943 10943 10946 10950 10952 10954 10956 10958 10960 10963 10964 10964 10967 10971 10973 10974 10975 10979 10981 10982 10984 10985 10986 10988 10989 10991 10991 10993 10994 10995 10995 10996 10997 10997 10997 10996 10995 10994 10993 10992
10919 10918 10917 10917 10916 10915 10914 10913 10912 10911 10910 10909 10908 10907 10906 10905 10904 10903 10902 10901 10900 10900 10899 10898 10898 10897 10897 10898 10898 10899 10900 10901 10903 10904 10906 10907 10909 10911 10913 10915 10917 10920 10922 10925 10927 10929 10931 10935 10937 10938 10942 10945 10946 10949 10951 10953 10956 10958 10960 10960 10963 10967 10970 10971 10971 10974 10976 10978 10981 10983 10984 10986 10988 10989 10990 10992 10994 10994 10995 10995 10996 10997 10997 10997 10996 10995 10994 10993
10916 10915 10914 10914 10913 10912 10911 10910 10909 10908 10907 10906 10904 10903 10902 10901 10900 10899 10899 10898 10897 10896 10895 10894 10893 10893 10893 10893 10893 10894 10895 10896 10897 10899 10900 10902 10904 10906 10908 10910 10913 10915 10918 10921 10923 10925 10927 10930 10932 10933 10938 10940 10941 10944 10947 10948 10951 10953 10956 10957 10959 10962 10966 10967 10968 10971 10972 10975 10979 10980 10982 10985 10986 10987 10989 10991 10993 10994 10994 10995 10995 10996 10997 10997 10996 10995 10994 10994
10913 10912 10911 10910 10909 10908 10907 10906 10906 10904 10903 10902 10901 10900 10899 10898 10897 10896 10895 10894 10893 10892 10891 10890 10889 10888 10888 10888 10888 10889 10890 10890 10891 10893 10895 10897 10899 10901 10904 10906 10908 10911 10914 10916 10918 10920 10922 10925 10927 10929 10932 10934 10937 10940 10941 10943 10946 10948 10952 10954 10957 10959 10961 10963 10966 10968 10969 10973 10976 10977 10980 10983 10984 10986 10988 10990 10992 10993 10994 10994 10995 10995 10996 10997 10996 10995 10995 10994
10910 10909 10908 10907 10906 10905 10904 10903 10902 10901 10900 10899 10898 10896 10895 10894 10893 10892 10891 10890 10889 10888 10887 10886 10885 10884 10884 10883 10884 10884 10885 10885 10886 10888 10890 10892 10893 10896 10899 10901 10904 10906 10909 10911 10914 10916 10918 10920 10922 10924 10927 10929 10933 10934 10935 10938 10942 10945 10948 10952 10955 10956 10957 10959 10962 10965 10967 10970 10973 10974 10977 10980 10983 10984 10986 10989 10991 10992 10993 10994 10995 10994 10995 10996 10996 10995 10995 10994
10907 10905 10905 10904 10903 10902 10901 10900 10899 10898 10896 10895 10894 10893 10891 10890 10889 10888 10887 10886 10885 10884 10883 10882 10881 10880 10879 10879 10879 10879 10880 10880 10881 10882 10884 10886 10888 10891 10893 10896 10899 10901 10904 10906 10909 10911 10913 10915 10917 10919 10921 10924 10928 10929 10931 10935 10938 10941 10945 10949 10952 10952 10953 10955 10958 10961 10963 10966 10969 10971 10974 10978 10980 10982 10984 10986 10989 10991 10992 10993 10994 10994 10994 10995 10995 10995 10995 10995
10903 10902 10901 10900 10899 10898 10897 10896 10895 10894 10893 10892 10890 10889 10888 10887 10885 10885 10883 10882 10881 10880 10879 10878 10877 10876 10875 10875 10875 10875 10875 10875 10876 10877 10879 10881 10883 10886 10888 10891 10893 10896 10899 10901 10904 10906 10909 10911 10913 10915 10917 10920 10924 10924 10927 10931 10933 10938 10942 10945 10946 10947 10948 10950 10954 10957 10959 10962 10965 10967 10971 10975 10977 10980 10982 10983 10986 10989 10990 10992 10993 10993 10994 10994 10994 10994 10995 10995
10900 10898 10897 10897 10896 10895 10894 10893 10891 10890 10889 10888 10887 10886 10884 10883 10882 10881 10880 10878 10877 10876 10875 10874 10873 10872 10871 10871 10871 10871 10871 10871 10872 10873 10874 10876 10878 10881 10883 10886 10888 10891 10894 10896 10900 10902 10905 10907 10909 10911 10913 10917 10919 10920 10923 10926 10930 10935 10936 10937 10940 10943 10945 10946 10949 10952 10955 10958 10961 10964 10968 10971 10974 10977 10979 10981 10983 10986 10988 10990 10991 10992 10993 10993 10993 10994 10994 10994
10896 10895 10894 10893 10892 10891 10890 10889 10888 10887 10885 10884 10883 10882 10881 10879 10878 10877 10876 10874 10873 10872 10871 10870 10869 10868 10867 10867 10867 10867 10867 10867 10868 10869 10870 10872 10874 10876 10878 10881 10884 10886 10889 10892 10896 10898 10900 10903 10905 10907 10910 10913 10915 10916 10918 10922 10927 10929 10929 10933 10937 10940 10942 10941 10944 10948 10952 10956 10959 10962 10964 10967 10970 10973 10976 10979 10981 10983 10985 10987 10989 10990 10991 10992 10992 10992 10993 10994
10892 10891 10890 10889 10888 10887 10886 10885 10884 10883 10882 10880 10879 10878 10877 10876 10875 10873 10872 10871 10869 10868 10867 10866 10865 10864 10864 10863 10863 10863 10863 10863 10864 10865 10866 10868 10870 10872 10874 10877 10879 10881 10885 10888 10891 10893 10896 10898 10901 10904 10906 10909 10911 10912 10914 10919 10923 10923 10925 10930 10932 10935 10939 10937 10939 10946 10950 10953 10957 10959 10961 10962 10966 10971 10974 10976 10978 10981 10983 10985 10987 10988 10989 10990 10990 10991 10992 10993
10889 10887 10886 10885 10884 10883 10882 10881 10880 10879 10878 10877 10876 10875 10873 10872 10872 10870 10868 10867 10866 10864 10863 10862 10862 10861 10860 10860 10860 10860 10860 10860 10861 10861 10863 10864 10866 10868 10870 10872 10874 10877 10880 10883 10886 10889 10892 10894 10898 10900 10901 10904 10907 10908 10910 10915 10918 10918 10921 10925 10926 10931 10935 10933 10935 10942 10947 10949 10952 10955 10957 10958 10963 10967 10970 10972 10975 10978 10980 10982 10984 10985 10987 10988 10989 10990 10991 10992
10885 10884 10882 10881 10880 10879 10878 10877 10876 10875 10874 10873 10872 10871 10870 10869 10868 10867 10864 10863 10862 10861 10860 10859 10858 10857 10857 10856 10856 10856 10856 10857 10857 10858 10859 10861 10862 10864 10866 10868 10870 10873 10876 10879 10882 10885 10887 10891 10893 10895 10897 10900 10903 10904 10906 10910 10912 10913 10916 10919 10921 10927 10930 10930 10932 10938 10942 10945 10947 10949 10952 10955 10958 10961 10965 10969 10972 10975 10977 10979 10981 10983 10985 10986 10987 10988 10990 10991
10881 10880 10879 10877 10876 10875 10874 10873 10872 10871 10870 10869 10868 10867 10866 10865 10865 10863 10861 10859 10858 10858 10857 10856 10855 10854 10854 10853 10853 10853 10853 10854 10854 10855 10856 10857 10859 10860 10862 10864 10867 10870 10873 10875 10878 10881 10883 10886 10889 10890 10893 10896 10897 10899 10902 10905 10906 10908 10911 10914 10918 10922 10926 10928 10930 10933 10937 10940 10941 10944 10948 10951 10953 10957 10961 10965 10968 10971 10974 10976 10978 10980 10982 10984 10985 10986 10988 10990
10877 10876 10875 10874 10873 10871 10871 10869 10868 10867 10866 10865 10864 10863 10862 10862 10861 10860 10858 10856 10854 10854 10854 10853 10851 10851 10851 10850 10850 10850 10851 10851 10851 10852 10853 10854 10856 10857 10859 10861 10864 10866 10869 10871 10874 10877 10879 10882 10884 10886 10888 10890 10893 10895 10897 10900 10901 10904 10908 10912 10915 10918 10920 10924 10927 10928 10930 10934 10936 10938 10942 10945 10949 10953 10957 10960 10964 10967 10971 10974 10976 10978 10979 10981 10983 10984 10986 10988
10873 10872 10871 10870 10869 10867 10867 10865 10864 10864 10862 10861 10860 10859 10859 10858 10858 10857 10856 10853 10851 10850 10851 10850 10848 10848 10848 10847 10847 10848 10848 10848 10849 10849 10850 10851 10853 10854 10856 10858 10860 10862 10865 10868 10870 10873 10875 10877 10879 10881 10884 10886 10889 10891 10893 10895 10897 10900 10905 10908 10909 10911 10914 10919 10922 10922 10923 10927 10930 10933 10937 10941 10945 10951 10954 10956 10959 10963 10967 10971 10973 10975 10977 10979 10980 10982 10984 10986
10868 10867 10866 10866 10864 10863 10862 10861 10860 10860 10858 10857 10856 10855 10855 10854 10854 10853 10853 10851 10848 10847 10847 10847 10846 10845 10845 10844 10845 10845 10845 10845 10846 10847 10848 10849 10850 10851 10853 10855 10857 10859 10861 10864 10866 10869 10871 10873 10875 10877 10880 10882 10884 10886 10888 10891 10893 10897 10900 10903 10904 10907 10910 10914 10917 10919 10920 10924 10928 10931 10935 10937 10941 10946 10949 10951 10955 10959 10963 10967 10969 10972 10974 10976 10978 10979 10982 10984
10864 10863 10862 10861 10860 10859 10858 10857 10856 10856 10855 10853 10852 10852 10851 10851 10850 10850 10849 10848 10846 10845 10844 10843 10843 10843 10842 10842 10842 10842 10843 10843 10844 10844 10845 10846 10847 10848 10850 10852 10854 10856 10858 10860 10863 10865 10867 10869 10871 10874 10876 10878 10880 10882 10885 10887 10890 10893 10895 10898 10900 10902 10906 10909 10912 10915 10917 10921 10924 10925 10928 10932 10936 10941 10944 10948 10952 10956 10959 10962 10966 10969 10972 10974 10975 10977 10979 10981
10860 10858 10858 10857 10856 10855 10854 10853 10852 10852 10851 10849 10848 10848 10847 10847 10847 10846 10846 10844 10843 10842 10841 10840 10840 10840 10840 10839 10839 10840 10840 10840 10841 10841 10842 10843 10844 10846 10848 10849 10851 10853 10855 10857 10859 10861 10863 10866 10868 10870 10872 10874 10876 10878 10881 10883 10885 10888 10891 10894 10895 10897 10901 10904 10907 10910 10913 10916 10916 10917 10922 10927 10931 10935 10940 10944 10948 10952 10956 10959 10963 10967 10969 10971 10973 10975 10977 10979
10855 10854 10853 10852 10852 10851 10850 10849 10848 10848 10847 10846 10845 10844 10844 10844 10843 10843 10842 10841 10840 10839 10838 10838 10837 10837 10837 10837 10836 10837 10837 10838 10838 10839 10840 10841 10842 10844 10845 10847 10849 10850 10852 10854 10856 10858 10861 10862 10864 10866 10869 10871 10873 10875 10877 10879 10881 10884 10887 10889 10890 10893 10896 10899 10902 10906 10909 10910 10909 10911 10917 10923 10927 10931 10935 10939 10943 10947 10952 10956 10960 10963 10965 10968 10970 10971 10974 10977
10851 10850 10849 10848 10847 10847 10846 10845 10844 10844 10843 10842 10841 10840 10840 10840 10840 10839 10839 10838 10838 10836 10835 10834 10834 10834 10835 10834 10834 10834 10834 10835 10836 10836 10837 10838 10840 10841 10843 10845 10846 10848 10849 10852 10854 10856 10858 10859 10861 10863 10865 10867 10869 10871 10873 10874 10876 10879 10881 10884 10886 10888 10891 10894 10897 10900 10902 10903 10904 10907 10913 10919 10925 10927 10929 10935 10939 10944 10948 10952 10956 10959 10961 10964 10966 10968 10970 10974
10847 10846 10845 10844 10843 10843 10842 10841 10841 10840 10840 10839 10837 10837 10837 10837 10837 10836 10835 10835 10835 10834 10833 10831 10831 10832 10832 10832 10831 10831 10832 10832 10833 10834 10835 10836 10837 10839 10841 10842 10844 10845 10847 10849 10851 10853 10854 10856 10858 10860 10861 10864 10865 10867 10868 10870 10872 10874 10876 10879 10881 10884 10886 10888 10892 10894 10895 10897 10901 10905 10910 10918 10921 10921 10924 10930 10935 10939 10944 10947 10951 10955 10958 10961 10963 10964 10966 10969
10844 10842 10841 10841 10840 10839 10839 10838 10837 10837 10836 10835 10834 10833 10833 10833 10833 10833 10832 10832 10830 10831 10831 10829 10828 10828 10829 10829 10829 10829 10830 10830 10830 10831 10832 10834 10835 10837 10838 10839 10841 10842 10844 10846 10848 10850 10851 10853 10855 10856 10858 10860 10862 10863 10864 10866 10868 10870 10872 10874 10876 10879 10881 10883 10886 10888 10889 10893 10899 10902 10906 10912 10914 10916 10921 10926 10930 10935 10939 10942 10946 10950 10954 10958 10960 10962 10962 10965
10840 10839 10838 10837 10836 10836 10835 10835 10834 10833 10833 10832 10831 10830 10830 10830 10830 10829 10829 10829 10828 10826 10827 10827 10826 10825 10826 10826 10826 10827 10827 10827 10828 10829 10830 10831 10833 10834 10835 10836 10838 10840 10841 10844 10846 10848 10849 10850 10852 10854 10855 10857 10858 10859 10860 10863 10864 10865 10867 10869 10871 10874 10875 10877 10880 10882 10884 10889 10892 10894 10898 10905 10909 10913 10918 10920 10925 10930 10933 10938 10942 10945 10949 10953 10957 10959 10960 10962
10835 10835 10834 10833 10832 10832 10832 10831 10830 10830 10829 10828 10827 10826 10826 10826 10826 10825 10825 10826 10826 10824 10823 10824 10824 10822 10822 10823 10824 10825 10825 10825 10825 10826 10827 10829 10831 10831 10832 10834 10836 10837 10839 10842 10844 10845 10847 10848 10849 10851 10852 10853 10855 10855 10857 10859 10860 10861 10862 10864 10866 10868 10869 10871 10873 10876 10879 10881 10884 10887 10894 10899 10904 10908 10911 10914 10918 10924 10929 10934 10938 10941 10945 10949 10952 10955 10957 10959
10830 10830 10830 10829 10828 10828 10828 10827 10827 10826 10825 10825 10823 10822 10823 10823 10822 10822 10822 10821 10822 10821 10821 10821 10820 10820 10820 10820 10820 10822 10822 10822 10822 10823 10825 10827 10828 10828 10830 10832 10834 10835 10837 10840 10841 10843 10845 10846 10847 10849 10849 10850 10851 10852 10853 10855 10855 10856 10858 10858 10861 10863 10864 10865 10867 10870 10874 10874 10878 10885 10890 10895 10899 10903 10906 10907 10912 10920 10925 10930 10934 10937 10941 10945 10948 10951 10954 10956
10825 10824 10825 10824 10823 10823 10823 10823 10823 10822 10821 10820 10819 10818 10819 10819 10818 10818 10818 10817 10817 10817 10818 10818 10817 10816 10818 10818 10817 10818 10819 10820 10820 10820 10822 10824 10825 10826 10828 10830 10832 10833 10836 10838 10839 10840 10842 10843 10844 10846 10846 10846 10847 10848 10850 10850 10850 10852 10853 10854 10856 10858 10859 10860 10861 10865 10868 10869 10873 10880 10885 10889 10894 10899 10901 10904 10909 10916 10921 10925 10929 10933 10936 10940 10944 10947 10951 10953
10819 10818 10819 10819 10817 10818 10819 10818 10818 10818 10817 10816 10815 10815 10815 10815 10814 10814 10815 10814 10813 10813 10813 10814 10814 10813 10814 10816 10815 10814 10816 10817 10818 10818 10820 10821 10822 10824 10826 10829 10830 10831 10834 10835 10836 10838 10839 10840 10841 10842 10841 10842 10844 10845 10845 10844 10845 10847 10848 10849 10851 10852 10853 10854 10856 10859 10862 10863 10867 10873 10879 10883 10887 10892 10895 10899 10905 10910 10914 10918 10922 10927 10931 10935 10939 10943 10947 10950
10813 10812 10813 10813 10811 10813 10813 10813 10813 10813 10812 10812 10811 10811 10811 10811 10811 10809 10810 10810 10810 10809 10809 10810 10810 10809 10811 10813 10812 10811 10814 10815 10815 10816 10817 10819 10820 10823 10825 10827 10828 10829 10831 10833 10834 10834 10835 10837 10838 10838 10837 10838 10840 10840 10840 10840 10840 10841 10843 10844 10846 10846 10847 10849 10851 10853 10855 10857 10861 10866 10873 10876 10879 10882 10885 10890 10897 10900 10903 10909 10914 10920 10926 10930 10934 10939 10943 10947
10806 10806 10809 10807 10804 10806 10808 10807 10808 10809 10808 10807 10807 10807 10807 10808 10807 10806 10806 10806 10805 10805 10805 10806 10807 10806 10808 10810 10809 10809 10811 10812 10812 10814 10815 10817 10819 10822 10823 10824 10825 10827 10828 10830 10830 10830 10832 10833 10834 10834 10833 10834 10835 10834 10834 10835 10835 10835 10836 10838 10839 10840 10841 10844 10846 10847 10848 10852 10855 10859 10866 10868 10870 10875 10878 10883 10887 10888 10891 10896 10902 10911 10918 10924 10930 10936 10940 10943
10800 10800 10804 10802 10796 10798 10802 10802 10803 10804 10803 10802 10802 10803 10803 10803 10803 10804 10803 10801 10801 10802 10802 10802 10803 10803 10804 10806 10806 10807 10808 10808 10810 10812 10814 10816 10819 10820 10820 10821 10824 10824 10826 10827 10827 10827 10828 10829 10829 10829 10829 10830 10831 10830 10830 10830 10829 10828 10829 10830 10832 10834 10836 10837 10839 10840 10842 10845 10848 10853 10859 10861 10863 10868 10872 10875 10877 10880 10883 10886 10891 10900 10909 10917 10925 10932 10937 10940
10793 10794 10798 10796 10790 10791 10795 10796 10798 10799 10798 10797 10798 10799 10799 10798 10798 10801 10801 10798 10798 10799 10798 10799 10800 10800 10800 10802 10804 10804 10804 10805 10809 10811 10813 10815 10816 10816 10817 10819 10821 10822 10823 10824 10822 10823 10825 10824 10824 10825 10824 10824 10826 10827 10826 10824 10823 10823 10823 10824 10826 10828 10829 10830 10832 10833 10835 10839 10843 10847 10851 10854 10856 10862 10866 10867 10869 10874 10878 10882 10887 10895 10904 10911 10918 10925 10932 10937
10787 10788 10790 10791 10787 10785 10787 10790 10792 10793 10792 10792 10794 10794 10795 10794 10794 10796 10798 10796 10795 10795 10795 10795 10796 10797 10797 10798 10800 10801 10801 10803 10807 10809 10811 10812 10811 10811 10814 10817 10818 10819 10820 10819 10819 10821 10821 10819 10819 10820 10819 10819 10821 10822 10821 10818 10818 10819 10819 10819 10821 10822 10822 10823 10825 10827 10829 10833 10837 10841 10844 10847 10851 10855 10858 10860 10863 10868 10874 10880 10885 10892 10900 10908 10914 10919 10924 10931
10780 10781 10782 10784 10782 10779 10781 10784 10786 10787 10786 10786 10788 10789 10790 10791 10790 10791 10793 10793 10792 10792 10792 10792 10793 10794 10795 10794 10795 10798 10799 10800 10804 10806 10808 10808 10807 10809 10812 10814 10815 10815 10815 10816 10817 10818 10817 10815 10815 10816 10815 10815 10817 10817 10816 10814 10814 10816 10815 10815 10816 10817 10817 10818 10819 10821 10823 10827 10831 10833 10837 10842 10845 10847 10851 10854 10858 10862 10868 10875 10880 10887 10895 10903 10909 10913 10916 10920
10774 10774 10775 10778 10777 10774 10776 10778 10778 10779 10779 10780 10783 10784 10785 10786 10786 10786 10788 10789 10788 10788 10789 10790 10790 10790 10791 10791 10792 10795 10796 10797 10800 10803 10805 10805 10804 10806 10809 10811 10812 10811 10811 10813 10814 10814 10813 10811 10812 10811 10810 10811 10812 10812 10812 10811 10810 10811 10811 10811 10811 10812 10812 10813 10814 10816 10818 10820 10823 10826 10831 10835 10838 10840 10844 10850 10854 10857 10863 10870 10875 10882 10889 10897 10903 10907 10909 10911
10768 10768 10769 10771 10772 10769 10769 10770 10770 10771 10772 10775 10777 10779 10779 10780 10781 10782 10783 10784 10785 10785 10785 10786 10786 10787 10788 10788 10789 10791 10793 10794 10797 10800 10802 10802 10802 10804 10806 10807 10808 10808 10808 10809 10810 10810 10810 10809 10808 10807 10806 10807 10808 10808 10808 10807 10805 10806 10806 10806 10807 10807 10807 10808 10810 10812 10813 10814 10817 10820 10824 10827 10830 10833 10838 10843 10846 10850 10856 10863 10868 10876 10884 10890 10896 10900 10902 10905
10761 10761 10763 10765 10766 10763 10760 10762 10764 10765 10766 10770 10772 10772 10773 10774 10775 10777 10778 10779 10781 10781 10781 10782 10783 10783 10784 10785 10786 10788 10789 10791 10793 10796 10797 10799 10800 10801 10801 10802 10804 10805 10804 10805 10806 10806 10806 10806 10805 10804 10803 10803 10803 10803 10803 10803 10801 10801 10801 10801 10802 10802 10803 10803 10805 10808 10809 10809 10811 10814 10817 10820 10823 10826 10830 10835 10838 10842 10848 10855 10862 10870 10877 10884 10889 10892 10896 10899
10754 10755 10757 10758 10758 10756 10754 10755 10758 10759 10760 10763 10765 10766 10767 10768 10770 10772 10773 10774 10776 10777 10777 10778 10779 10780 10781 10783 10783 10784 10786 10788 10789 10791 10793 10795 10797 10797 10796 10798 10799 10800 10801 10802 10801 10802 10803 10802 10801 10801 10799 10799 10798 10798 10798 10798 10797 10796 10796 10796 10797 10797 10797 10798 10799 10802 10803 10804 10805 10807 10810 10814 10816 10818 10822 10826 10830 10835 10841 10848 10856 10863 10870 10876 10881 10886 10889 10891
10748 10747 10749 10750 10749 10750 10750 10749 10750 10752 10753 10755 10758 10759 10760 10762 10764 10766 10768 10769 10770 10772 10773 10774 10775 10777 10778 10779 10780 10781 10782 10784 10786 10788 10790 10791 10792 10792 10793 10795 10795 10795 10797 10798 10797 10797 10798 10798 10796 10796 10796 10795 10794 10794 10794 10793 10793 10792 10791 10791 10791 10792 10792 10792 10794 10796 10798 10799 10800 10800 10804 10807 10808 10810 10815 10819 10823 10828 10834 10841 10848 10854 10861 10867 10872 10877 10881 10883
10741 10740 10742 10744 10742 10743 10744 10742 10743 10745 10746 10747 10750 10752 10754 10756 10758 10759 10762 10765 10766 10767 10769 10769 10771 10773 10775 10776 10777 10778 10778 10780 10782 10785 10786 10787 10788 10789 10790 10792 10792 10790 10791 10793 10793 10792 10793 10793 10792 10792 10792 10791 10790 10790 10789 10789 10788 10787 10787 10787 10787 10786 10787 10787 10788 10790 10792 10793 10794 10794 10797 10800 10802 10804 10808 10811 10816 10822 10827 10833 10839 10845 10852 10858 10863 10868 10873 10876
10734 10733 10735 10736 10736 10735 10736 10736 10736 10738 10739 10740 10742 10745 10747 10749 10751 10753 10756 10760 10762 10762 10763 10765 10766 10769 10771 10773 10773 10774 10774 10776 10778 10781 10782 10782 10784 10785 10785 10787 10788 10786 10785 10787 10788 10787 10787 10787 10787 10787 10788 10787 10786 10786 10785 10784 10784 10783 10783 10784 10783 10782 10782 10782 10783 10784 10786 10787 10788 10788 10790 10793 10796 10798 10800 10803 10809 10815 10820 10825 10831 10838 10845 10850 10855 10860 10865 10870
10727 10727 10727 10728 10728 10727 10727 10729 10730 10731 10731 10733 10735 10737 10740 10742 10744 10747 10751 10754 10756 10757 10759 10761 10762 10765 10767 10769 10769 10769 10770 10772 10775 10777 10778 10777 10779 10780 10781 10782 10783 10781 10781 10782 10783 10782 10782 10782 10782 10782 10783 10782 10782 10782 10781 10780 10780 10779 10779 10779 10778 10777 10777 10777 10778 10779 10780 10780 10780 10782 10784 10787 10791 10793 10795 10798 10804 10809 10814 10819 10825 10832 10838 10843 10848 10853 10858 10864